TimeEDT,TemperatureF,Dew PointF,Humidity,Sea Level PressureIn,VisibilityMPH,Wind Direction,Wind SpeedMPH,Gust SpeedMPH,PrecipitationIn,Events,Conditions,WindDirDegrees,DateUTC
12:16 AM,57.2,55.4,94,30.11,9.0,Calm,Calm,-,N/A,,Overcast,0,2007-05-06 04:16:00
12:54 AM,57.9,55.9,93,30.07,7.0,Calm,Calm,-,N/A,,Overcast,0,2007-05-06 04:54:00
1:08 AM,57.2,55.4,94,30.11,6.0,Calm,Calm,-,N/A,,Overcast,0,2007-05-06 05:08:00
1:54 AM,57.9,55.9,93,30.07,4.0,Calm,Calm,-,N/A,,Overcast,0,2007-05-06 05:54:00
2:54 AM,57.9,55.9,93,30.06,5.0,Calm,Calm,-,N/A,,Overcast,0,2007-05-06 06:54:00
3:26 AM,57.2,55.4,94,30.09,4.0,Calm,Calm,-,N/A,,Overcast,0,2007-05-06 07:26:00
3:42 AM,57.2,55.4,94,30.09,3.0,Calm,Calm,-,N/A,,Overcast,0,2007-05-06 07:42:00
3:54 AM,57.0,55.0,93,30.06,2.0,Calm,Calm,-,N/A,,Overcast,0,2007-05-06 07:54:00
3:56 AM,55.4,55.4,100,30.09,1.2,Calm,Calm,-,N/A,,Overcast,0,2007-05-06 07:56:00
4:05 AM,55.4,55.4,100,30.09,0.2,WNW,3.5,-,N/A,Fog,Fog,300,2007-05-06 08:05:00
4:54 AM,55.9,55.0,97,30.06,0.2,North,3.5,-,N/A,Fog,Fog,350,2007-05-06 08:54:00
5:08 AM,55.4,55.4,100,30.10,0.5,Calm,Calm,-,N/A,Fog,Fog,0,2007-05-06 09:08:00
5:24 AM,55.4,55.4,100,30.10,0.2,NNW,4.6,-,N/A,Fog,Fog,330,2007-05-06 09:24:00
5:44 AM,55.4,55.4,100,30.10,0.5,NNW,6.9,-,N/A,Fog,Fog,330,2007-05-06 09:44:00
5:54 AM,57.0,55.0,93,30.06,2.5,NW,5.8,-,N/A,,Overcast,320,2007-05-06 09:54:00
6:02 AM,57.2,55.4,94,30.11,5.0,NW,5.8,-,N/A,,Overcast,310,2007-05-06 10:02:00
6:54 AM,57.9,55.9,93,30.08,3.0,NNW,5.8,-,N/A,,Overcast,330,2007-05-06 10:54:00
7:05 AM,57.2,55.4,94,30.11,3.0,Calm,Calm,-,N/A,,Overcast,0,2007-05-06 11:05:00
7:54 AM,60.1,57.0,90,30.09,7.0,Calm,Calm,-,N/A,,Overcast,0,2007-05-06 11:54:00
8:36 AM,60.8,57.2,88,30.16,10.0,Variable,6.9,-,N/A,,Overcast,0,2007-05-06 12:36:00
8:54 AM,60.1,54.0,80,30.13,10.0,ENE,9.2,18.4,N/A,,Overcast,60,2007-05-06 12:54:00
9:24 AM,59.0,53.6,82,30.18,10.0,East,6.9,-,N/A,,Overcast,80,2007-05-06 13:24:00
9:42 AM,59.0,51.8,77,30.17,10.0,ENE,10.4,17.3,N/A,,Overcast,70,2007-05-06 13:42:00
9:54 AM,60.1,51.1,72,30.14,10.0,NE,8.1,-,N/A,,Overcast,50,2007-05-06 13:54:00
10:10 AM,60.8,51.8,72,30.19,10.0,Variable,3.5,-,N/A,,Overcast,0,2007-05-06 14:10:00
10:33 AM,62.6,51.8,68,30.19,10.0,ESE,4.6,-,N/A,,Overcast,120,2007-05-06 14:33:00
10:54 AM,63.0,51.1,65,30.14,10.0,NNE,6.9,-,N/A,,Overcast,30,2007-05-06 14:54:00
11:37 AM,64.4,51.8,64,30.20,10.0,North,4.6,-,N/A,,Overcast,360,2007-05-06 15:37:00
11:54 AM,64.9,48.9,56,30.16,10.0,Variable,5.8,-,N/A,,Overcast,0,2007-05-06 15:54:00
12:23 PM,66.2,51.8,60,30.20,10.0,Variable,3.5,-,N/A,,Overcast,0,2007-05-06 16:23:00
12:54 PM,66.9,52.0,59,30.15,10.0,Calm,Calm,-,N/A,,Overcast,0,2007-05-06 16:54:00
1:54 PM,68.0,54.0,61,30.14,10.0,Variable,3.5,-,N/A,,Partly Cloudy,0,2007-05-06 17:54:00
2:54 PM,70.0,55.9,61,30.13,10.0,SSE,10.4,-,N/A,,Partly Cloudy,160,2007-05-06 18:54:00
3:54 PM,69.1,54.0,58,30.12,10.0,Variable,6.9,-,N/A,,Mostly Cloudy,0,2007-05-06 19:54:00
4:54 PM,66.9,52.0,59,30.14,10.0,East,9.2,-,N/A,,Overcast,80,2007-05-06 20:54:00
5:54 PM,64.0,50.0,60,30.16,10.0,East,9.2,-,N/A,,Overcast,100,2007-05-06 21:54:00
6:54 PM,62.1,48.0,60,30.18,10.0,ESE,4.6,-,N/A,,Overcast,110,2007-05-06 22:54:00
7:54 PM,61.0,44.1,54,30.19,10.0,ESE,5.8,-,N/A,,Overcast,120,2007-05-06 23:54:00
8:54 PM,59.0,37.0,44,30.23,10.0,SE,6.9,-,N/A,,Overcast,140,2007-05-07 00:54:00
9:54 PM,57.0,30.9,37,30.27,10.0,SE,8.1,-,N/A,,Overcast,140,2007-05-07 01:54:00
10:54 PM,55.0,30.0,38,30.30,10.0,SSE,5.8,-,N/A,,Overcast,150,2007-05-07 02:54:00
11:54 PM,53.1,30.0,41,30.34,10.0,SSE,6.9,-,N/A,,Overcast,150,2007-05-07 03:54:00